Des Moines, IA

4:47 AM CST on December 10, 2016 (GMT -0600)
Des Moines International

Weather History for KDSM - March, 2013

Change the Weather History Date:

Thursday, March 21, 2013

  Actual Average Record
Temperature  
Mean Temperature 26 °F 42 °F  
Max Temperature 38 °F 52 °F 86 °F (1938)
Min Temperature 14 °F 32 °F 2 °F (1951)
Degree Days  
Heating Degree Days 39 24  
Month to date heating degree days 709 584  
Since 1 July heating degree days 5066 5415  
Cooling Degree Days 0 0  
Month to date cooling degree days 0 0  
Year to date cooling degree days 0 0  
Moisture  
Dew Point 9 °F    
Average Humidity 50    
Maximum Humidity 68    
Minimum Humidity 32    
Precipitation  
Precipitation 0.00 in 0.07 in 0.71 in (1884)
Month to date precipitation 1.29 1.45  
Year to date precipitation 4.14 3.73  
Snow  
Snow 0.00 in 0.20 in 4.30 in (2006)
Month to date snowfall 6.2 3.9  
Since 1 July snowfall 44.9 32.2  
Snow Depth 0.00 in    
Sea Level Pressure  
Sea Level Pressure 30.09 in    
Wind  
Wind Speed 7 mph (ENE)    
Max Wind Speed 13 mph    
Max Gust Speed 17 mph    
Visibility 10 miles    
Events      
T = Trace of Precipitation, MM = Missing Value Source: NWS Daily Summary

Daily Weather History Graph

Daily Weather History Graph

Search for Another Location

Airport or City:

Trip Planner

Search our weather history database for the weather conditions in past years. The results will help you decide how hot, cold, wet, or windy it might be!

Date:

Astronomy

Mar. 21, 2013 Rise Set
Actual Time 7:15 AM CDT 7:28 PM CDT
Civil Twilight 6:48 AM CDT 7:55 PM CDT
Nautical Twilight 6:15 AM CDT 8:28 PM CDT
Astronomical Twilight 5:42 AM CDT 9:01 PM CDT
Moon 1:55 PM CDT (3/21) 3:41 AM CDT (3/21)
Length of Visible Light 13h 07m
Length of Day
12h 12m
Waxing Gibbous, 69% of the Moon is Illuminated
Mar 21
Waxing Gibbous
Mar 27
Full
Apr 2
Last Quarter
Apr 10
New
Apr 18
First Quarter

Hourly Weather History & Observations

Time (CDT) Temp. Windchill Dew Point Humidity Pressure Visibility Wind Dir Wind Speed Gust Speed Precip Events Conditions
12:54 AM 19.4 °F 9.5 °F 8.6 °F 63% 30.13 in 10.0 mi North 8.1 mph - N/A   Clear
1:54 AM 19.0 °F 9.0 °F 8.1 °F 62% 30.17 in 10.0 mi NNE 8.1 mph - N/A   Clear
2:54 AM 17.1 °F 4.3 °F 8.1 °F 68% 30.16 in 10.0 mi NE 11.5 mph - N/A   Clear
3:54 AM 16.0 °F 3.6 °F 5.0 °F 62% 30.14 in 10.0 mi NNE 10.4 mph - N/A   Clear
4:54 AM 15.1 °F 4.2 °F 5.0 °F 64% 30.14 in 10.0 mi NE 8.1 mph - N/A   Clear
5:54 AM 14.0 °F 6.5 °F 3.0 °F 62% 30.14 in 10.0 mi NE 4.6 mph - N/A   Clear
6:54 AM 15.1 °F - 3.0 °F 59% 30.15 in 10.0 mi Calm Calm - N/A   Scattered Clouds
7:54 AM 15.1 °F - 5.0 °F 64% 30.16 in 10.0 mi Calm Calm - N/A   Mostly Cloudy
8:54 AM 17.1 °F 10.0 °F 5.0 °F 59% 30.15 in 10.0 mi East 4.6 mph - N/A   Mostly Cloudy
9:54 AM 19.0 °F 10.0 °F 6.1 °F 57% 30.15 in 10.0 mi Variable 6.9 mph - N/A   Mostly Cloudy
10:54 AM 23.0 °F 17.0 °F 7.0 °F 50% 30.13 in 10.0 mi SSE 4.6 mph - N/A   Mostly Cloudy
11:54 AM 26.1 °F 19.4 °F 8.1 °F 47% 30.12 in 10.0 mi Variable 5.8 mph - N/A   Mostly Cloudy
12:54 PM 30.0 °F - 9.0 °F 41% 30.09 in 10.0 mi North - - N/A   Mostly Cloudy
1:54 PM 30.9 °F 24.3 °F 9.0 °F 40% 30.06 in 10.0 mi SSE 6.9 mph - N/A   Mostly Cloudy
2:54 PM 34.0 °F 31.0 °F 10.0 °F 37% 30.03 in 10.0 mi Variable 3.5 mph - N/A   Mostly Cloudy
3:54 PM 37.0 °F 32.4 °F 10.9 °F 34% 30.01 in 10.0 mi Variable 5.8 mph - N/A   Mostly Cloudy
4:54 PM 36.0 °F 33.3 °F 10.0 °F 34% 30.01 in 10.0 mi ESE 3.5 mph - N/A   Scattered Clouds
5:54 PM 36.0 °F 31.1 °F 12.0 °F 37% 30.00 in 10.0 mi ENE 5.8 mph - N/A   Partly Cloudy
6:54 PM 34.0 °F 26.6 °F 12.0 °F 40% 30.01 in 10.0 mi ENE 9.2 mph - N/A   Partly Cloudy
7:54 PM 32.0 °F 24.8 °F 12.9 °F 45% 30.03 in 10.0 mi ENE 8.1 mph - N/A   Partly Cloudy
8:54 PM 30.0 °F 21.1 °F 15.1 °F 54% 30.05 in 10.0 mi ENE 10.4 mph - N/A   Clear
9:54 PM 27.0 °F 17.3 °F 16.0 °F 63% 30.06 in 10.0 mi ENE 10.4 mph - N/A   Clear
10:54 PM 26.1 °F 16.8 °F 15.1 °F 63% 30.06 in 10.0 mi ENE 9.2 mph - N/A   Clear
11:54 PM 25.0 °F 17.1 °F 15.1 °F 66% 30.07 in 10.0 mi ENE 6.9 mph - N/A   Clear